DL2GKM-6 Weather Reports


time (UTC)temp
C
wind
direction
speed
KPH
gust
KPH
rain 1hr
cm
rain 24hr
cm
rain mn
cm
humidity
%
barometer
mb
20260506014258 10 152 3.2 9.7 0.00 12.88 0.00 83 1007.2
20260506013801 10 134 0.0 0.0 0.00 12.88 0.00 83 1007.2
20260506013351 10 134 0.0 0.0 0.00 12.88 0.00 83 1007.2
20260506012919 10 134 3.2 0.0 0.00 12.88 0.00 83 1007.2
20260506012451 10 179 0.0 0.0 0.00 12.88 0.00 83 1007.2
20260506012016 10 179 0.0 0.0 0.00 12.88 0.00 83 1007.2
20260506011546 10 179 0.0 0.0 0.00 12.88 0.00 83 1007.1
20260506011139 10 179 0.0 0.0 0.00 12.88 0.00 83 1007.2
20260506010711 10 179 0.0 0.0 0.00 12.88 0.00 83 1007.2
20260506010301 10 179 0.0 0.0 0.00 12.88 0.00 83 1007.1
20260506005856 10 179 0.0 0.0 0.00 12.88 0.00 83 1007.1
20260506005421 10 179 0.0 0.0 0.00 12.88 0.00 83 1006.9
20260506005001 10 179 0.0 0.0 0.00 12.88 0.00 83 1006.8
20260506004554 10 179 4.8 0.0 0.00 12.88 0.00 83 1006.9
20260506004111 10 161 0.0 0.0 0.00 12.88 0.00 83 1006.9
20260506003654 10 145 6.4 6.4 0.00 12.88 0.00 83 1007.1
20260506003212 10 147 3.2 9.7 0.00 12.88 0.00 83 1007.2
20260506002814 10 165 6.4 9.7 0.00 12.88 0.00 83 1007.2
20260506002406 10 164 4.8 4.8 0.00 12.88 0.00 83 1007.3
20260506001934 10 185 0.0 0.0 0.00 12.88 0.00 83 1007.3
20260506001439 10 185 3.2 0.0 0.00 12.88 0.00 82 1007.4
20260506000946 10 176 0.0 0.0 0.00 12.88 0.00 82 1007.5
20260506000526 10 200 4.8 3.2 0.00 12.88 0.00 82 1007.5
20260506000041 10 179 0.0 0.0 0.00 12.88 0.00 82 1007.6
20260505235621 10 179 0.0 0.0 0.00 12.88 0.00 82 1007.6
20260505235141 10 179 0.0 0.0 0.00 12.88 0.00 82 1007.6
20260505234651 10 179 0.0 0.0 0.00 12.88 0.00 83 1007.7
20260505234206 10 179 0.0 0.0 0.00 12.88 0.00 83 1007.7
20260505233706 10 179 0.0 0.0 0.00 12.88 0.00 83 1007.7
20260505233234 10 179 0.0 0.0 0.00 12.88 0.00 83 1007.7
20260505232811 10 179 0.0 0.0 0.00 12.88 0.00 83 1007.8
20260505232314 10 157 0.0 8.0 0.00 12.88 0.00 83 1007.9
20260505231834 10 116 4.8 0.0 0.00 12.88 0.00 83 1007.8
20260505231416 10 193 8.0 11.3 0.00 12.88 0.00 83 1007.8
20260505231011 10 158 11.3 11.3 0.00 12.88 0.00 83 1007.8
20260505230536 10 185 9.7 9.7 0.00 12.88 0.00 83 1007.8
20260505230051 10 169 0.0 0.0 0.00 12.88 0.00 83 1007.8
20260505225554 10 169 4.8 1.6 0.00 12.88 0.28 83 1007.9
20260505225054 10 151 8.0 9.7 0.00 12.88 0.28 83 1007.9
20260505224624 11 171 6.4 6.4 0.00 12.88 0.28 83 1007.9
20260505224141 11 182 9.7 4.8 0.00 12.88 0.28 83 1007.8
20260505223651 11 160 6.4 6.4 0.00 12.88 0.28 83 1007.8
20260505223241 11 172 9.7 6.4 0.00 12.88 0.28 83 1007.8
20260505222741 11 152 9.7 0.0 0.00 12.88 0.28 83 1007.8
20260505222334 11 140 11.3 24.1 0.00 12.88 0.28 83 1007.7
20260505221934 11 172 14.5 12.9 0.00 12.88 0.28 83 1007.8
20260505221501 11 227 6.4 12.9 0.00 12.88 0.28 83 1007.8
20260505221046 11 241 14.5 14.5 0.00 12.88 0.28 83 1007.8
20260505220626 11 138 11.3 9.7 0.00 12.88 0.25 82 1007.8
20260505220154 11 152 3.2 0.0 0.00 12.88 0.25 82 1007.8
20260505215750 11 151 0.0 9.7 0.00 12.88 0.25 82 1007.8
20260505215334 11 138 12.9 17.7 0.00 12.88 0.25 82 1007.8
20260505214857 11 148 12.9 12.9 0.00 12.88 0.25 82 1007.9
20260505214421 11 148 11.3 16.1 0.00 12.88 0.25 82 1007.9
20260505213946 11 144 12.9 11.3 0.00 12.88 0.25 82 1008.0
20260505213501 11 140 12.9 16.1 0.00 12.88 0.25 82 1008.0
20260505213026 11 185 8.0 9.7 0.00 12.88 0.25 82 1007.9
20260505212552 11 178 11.3 9.7 0.00 12.88 0.25 82 1007.9
20260505212151 11 152 8.0 8.0 0.00 12.88 0.25 82 1007.9
20260505211651 11 131 9.7 11.3 0.00 12.88 0.25 82 1007.9
20260505211234 11 131 8.0 8.0 0.00 12.88 0.25 82 1007.9
20260505210831 11 182 6.4 0.0 0.00 12.88 0.25 82 1008.0
20260505210411 11 148 4.8 11.3 0.00 12.88 0.25 82 1007.9
20260505210006 12 137 6.4 0.0 0.00 12.88 0.25 82 1007.9
20260505205511 12 158 9.7 6.4 0.00 12.88 0.25 82 1007.9
20260505205011 12 152 4.8 12.9 0.00 12.88 0.25 81 1007.9
20260505204554 12 133 9.7 6.4 0.00 12.88 0.25 81 1007.9
20260505204151 12 172 9.7 12.9 0.00 12.88 0.25 81 1007.8
20260505203751 12 160 0.0 0.0 0.00 12.88 0.23 81 1007.8
20260505203316 12 222 6.4 8.0 0.00 12.88 0.23 80 1007.7
20260505202911 12 161 12.9 6.4 0.00 12.88 0.23 80 1007.7
20260505202411 12 141 8.0 11.3 0.00 12.88 0.23 80 1007.7
20260505201926 12 172 1.6 11.3 0.00 12.88 0.23 80 1007.6
20260505201440 12 171 1.6 6.4 0.00 12.88 0.23 79 1007.5
20260505201031 12 136 11.3 4.8 0.00 12.88 0.23 79 1007.4
20260505200541 12 147 8.0 8.0 0.00 12.88 0.23 79 1007.4
20260505200114 12 224 0.0 11.3 0.00 12.88 0.23 79 1007.4
20260505195634 12 181 9.7 0.0 0.00 12.88 0.23 79 1007.3
20260505195156 12 131 8.0 4.8 0.00 12.88 0.23 80 1007.3
20260505194714 13 136 12.9 1.6 0.00 12.88 0.23 80 1007.3
20260505194214 13 179 12.9 4.8 0.00 12.88 0.20 80 1007.3
20260505193746 13 158 11.3 14.5 0.00 12.88 0.20 80 1007.3
20260505193246 13 182 0.0 0.0 0.00 12.88 0.20 81 1007.3
20260505192801 13 133 0.0 0.0 0.00 12.88 0.20 81 1007.4
20260505192326 13 151 11.3 0.0 0.00 12.88 0.20 82 1007.4
20260505191914 13 175 6.4 0.0 0.00 12.88 0.20 83 1007.3
20260505191506 13 200 11.3 9.7 0.00 12.88 0.20 83 1007.3
20260505191021 13 106 9.7 4.8 0.00 12.88 0.20 83 1007.2
20260505190554 13 176 14.5 9.7 0.00 12.88 0.20 83 1007.1
20260505185634 13 165 8.0 12.9 0.00 12.88 0.20 84 1007.2
20260505185141 13 210 0.0 0.0 0.00 12.88 0.20 84 1007.1
20260505184702 13 210 8.0 0.0 0.00 12.88 0.18 84 1007.1
20260505184241 13 148 8.0 6.4 0.00 12.88 0.18 84 1007.1
20260505183814 13 199 3.2 6.4 0.00 12.88 0.18 84 1006.9
20260505183411 13 174 4.8 6.4 0.00 12.88 0.18 84 1006.9
20260505182911 13 148 8.0 6.4 0.00 12.88 0.18 84 1006.9
20260505182505 13 151 0.0 0.0 0.00 12.88 0.18 85 1007.1
20260505182014 13 182 9.7 8.0 0.00 12.88 0.18 85 1006.9
20260505181526 13 175 11.3 11.3 0.00 12.88 0.18 85 1006.9
20260505181126 13 178 3.2 14.5 0.00 12.88 0.15 86 1006.8
20260505180711 14 140 3.2 8.0 0.00 12.88 0.15 87 1006.8
20260505180259 14 85 3.2 0.0 0.00 12.88 0.15 87 1006.9
20260505175840 14 162 0.0 0.0 0.00 12.88 0.15 87 1007.1
20260505175354 14 168 1.6 4.8 0.00 12.88 0.15 88 1007.1
20260505174901 14 311 0.0 0.0 0.00 12.88 0.15 88 1006.9
20260505174416 14 311 0.0 0.0 0.00 12.88 0.15 88 1006.9
20260505173941 14 311 0.0 0.0 0.00 12.85 0.13 88 1006.8
20260505173502 14 311 0.0 0.0 0.00 12.85 0.13 88 1006.9
20260505173014 14 342 0.0 0.0 0.00 12.85 0.13 88 1006.9
20260505172554 14 342 0.0 0.0 0.00 12.85 0.13 88 1006.9
20260505172131 14 342 1.6 0.0 0.00 12.85 0.13 87 1006.8
20260505171641 14 282 4.8 6.4 0.00 12.85 0.13 86 1006.8
20260505171234 15 14 3.2 0.0 0.00 12.85 0.10 85 1006.8
20260505170826 15 18 4.8 8.0 0.00 12.85 0.10 83 1006.8
20260505170354 15 339 8.0 8.0 0.00 12.85 0.10 82 1007.1
20260505165916 15 312 12.9 9.7 0.00 12.85 0.10 80 1006.9
20260505165431 15 342 6.4 9.7 0.00 12.85 0.10 80 1006.8
20260505164956 16 340 8.0 4.8 0.00 12.85 0.10 79 1006.8
20260505164544 16 31 9.7 8.0 0.00 12.85 0.10 79 1006.5
20260505164101 16 309 8.0 0.0 0.00 12.85 0.10 77 1006.5
20260505163631 16 1 4.8 0.0 0.00 12.85 0.10 77 1006.5
20260505163146 16 359 9.7 8.0 0.00 12.85 0.10 77 1006.4
20260505162703 16 302 3.2 4.8 0.00 12.85 0.10 78 1006.4
20260505162231 16 3 0.0 0.0 0.00 12.85 0.10 78 1006.3
20260505161736 16 17 4.8 4.8 0.00 12.85 0.10 78 1006.3
20260505161306 16 8 6.4 6.4 0.00 12.85 0.10 78 1006.3
20260505160901 16 319 1.6 0.0 0.00 12.85 0.10 78 1006.3
20260505160446 16 71 0.0 0.0 0.00 12.85 0.10 77 1006.3
20260505153341 16 342 1.6 0.0 0.00 12.85 0.10 81 1006.4
20260505152851 16 359 0.0 0.0 0.00 12.85 0.10 82 1006.4
20260505152354 16 359 0.0 0.0 0.00 12.85 0.10 81 1006.4
20260505151906 16 359 0.0 0.0 0.00 12.85 0.10 82 1006.4
20260505151417 16 359 0.0 0.0 0.00 12.85 0.10 82 1006.5
20260505150951 16 7 8.0 0.0 0.00 12.85 0.10 82 1006.4
20260505150451 16 62 0.0 6.4 0.00 12.85 0.10 81 1006.5
20260505140640 14 292 0.0 0.0 0.00 12.85 0.10 85 1007.3
20260505140151 15 292 0.0 0.0 0.00 12.85 0.10 84 1007.3
20260505130301 15 292 0.0 0.0 0.00 12.85 0.05 77 1008.0
20260505124941 15 185 4.8 0.0 0.00 12.85 0.05 76 1008.0
20260505124451 15 272 0.0 0.0 0.00 12.85 0.05 76 1008.0
20260505124021 16 169 8.0 1.6 0.00 12.85 0.05 76 1008.0
20260505123521 16 229 0.0 6.4 0.00 12.85 0.03 76 1008.0
20260505123120 16 308 0.0 0.0 0.00 12.85 0.03 76 1008.0
20260505122655 16 277 0.0 0.0 0.00 12.85 0.03 76 1008.0
20260505122156 16 210 0.0 0.0 0.00 12.85 0.03 76 1008.0
20260505121721 16 7 0.0 0.0 0.00 12.85 0.03 76 1008.0
20260505121251 16 356 3.2 11.3 0.00 12.85 0.03 76 1007.9
20260505120834 16 270 9.7 9.7 0.00 12.85 0.03 75 1007.9
20260505120334 15 268 3.2 3.2 0.00 12.85 0.03 75 1007.9
20260505115906 16 52 0.0 0.0 0.00 12.85 0.03 73 1007.9
20260505115503 16 291 6.4 3.2 0.00 12.85 0.03 73 1007.9
20260505115046 16 239 9.7 4.8 0.00 12.85 0.00 71 1007.9
20260505114631 16 304 16.1 16.1 0.00 12.85 0.00 70 1008.0
20260505114146 17 301 6.4 8.0 0.00 12.85 0.00 68 1008.0
20260505113701 17 52 19.3 9.7 0.00 12.85 0.00 65 1007.9
20260505113226 17 267 1.6 11.3 0.00 12.85 0.00 64 1007.7
20260505112826 17 251 0.0 0.0 0.00 12.85 0.00 62 1007.6
20260505112352 17 287 0.0 0.0 0.00 12.85 0.00 61 1007.5
20260505111929 17 287 0.0 0.0 0.00 12.85 0.00 59 1007.5
20260505111526 17 55 0.0 0.0 0.00 12.85 0.00 58 1007.4
20260505111117 17 6 0.0 0.0 0.00 12.85 0.00 58 1007.4
20260505110654 17 6 1.6 0.0 0.00 12.85 0.00 58 1007.4
20260505110154 17 11 3.2 0.0 0.00 12.85 0.00 58 1007.4
20260505102213 18 38 1.6 0.0 0.00 12.85 0.00 57 1007.5
20260505101746 18 322 3.2 1.6 0.00 12.85 0.00 57 1007.5
20260505101336 18 330 3.2 4.8 0.00 12.85 0.00 57 1007.6
20260505100934 18 251 3.2 6.4 0.00 12.85 0.00 57 1007.6
20260505100531 18 42 8.0 1.6 0.00 12.85 0.00 57 1007.6
20260505100055 18 20 0.0 0.0 0.00 12.85 0.00 57 1007.7
20260505095626 18 20 4.8 0.0 0.00 12.85 0.00 57 1007.7
20260505095131 18 316 0.0 0.0 0.00 12.85 0.00 57 1007.7
20260505094726 18 352 9.7 11.3 0.00 12.85 0.00 58 1007.7
20260505094241 17 354 0.0 0.0 0.00 12.85 0.00 58 1007.7
20260505093746 17 328 0.0 0.0 0.00 12.85 0.00 59 1007.7
20260505093331 17 309 0.0 4.8 0.00 12.85 0.00 59 1007.7
20260505092836 17 38 1.6 0.0 0.00 12.85 0.00 60 1007.8
20260505092431 17 79 3.2 8.0 0.00 12.85 0.00 60 1007.8
20260505092026 17 62 3.2 8.0 0.00 12.85 0.00 59 1007.9
20260505091526 17 95 1.6 6.4 0.00 12.85 0.00 59 1007.9
20260505091111 17 8 1.6 0.0 0.00 12.85 0.00 58 1007.9
20260505090641 17 179 0.0 0.0 0.00 12.85 0.00 58 1007.9
20260505090236 18 133 6.4 3.2 0.00 12.85 0.00 58 1008.0
20260505085750 17 8 8.0 4.8 0.00 12.85 0.00 58 1008.1
20260505085258 17 10 0.0 0.0 0.00 12.85 0.00 58 1008.1
20260505084816 17 301 8.0 8.0 0.00 12.85 0.00 58 1008.1
20260505081224 17 330 1.6 0.0 0.00 12.85 0.00 60 1008.3
20260505080744 16 346 0.0 8.0 0.00 12.85 0.00 61 1008.4
20260505080336 16 274 4.8 0.0 0.00 12.85 0.00 62 1008.4
20260505075911 16 76 4.8 4.8 0.00 12.85 0.00 62 1008.5
20260505075451 16 349 1.6 0.0 0.00 12.85 0.00 62 1008.6
20260505075024 16 55 4.8 3.2 0.00 12.85 0.00 62 1008.6
20260505074551 16 265 6.4 6.4 0.00 12.85 0.00 63 1008.7
20260505074141 16 352 0.0 9.7 0.00 12.85 0.00 64 1008.7
20260505073716 16 302 8.0 3.2 0.00 12.85 0.00 64 1008.7
20260505073224 15 13 9.7 0.0 0.00 12.85 0.00 65 1008.9
20260505072751 15 347 3.2 4.8 0.00 12.85 0.00 66 1008.9
20260505072324 15 323 3.2 4.8 0.00 12.85 0.00 65 1008.9
20260505071856 15 14 1.6 4.8 0.00 12.85 0.00 66 1008.9
20260505071356 15 27 8.0 8.0 0.00 12.85 0.00 66 1008.9
20260505070931 15 11 6.4 9.7 0.00 12.85 0.00 65 1008.7
20260505070429 15 3 9.7 8.0 0.00 12.85 0.00 66 1008.9
20260505065951 15 6 0.0 0.0 0.00 12.85 0.00 66 1008.7
20260505065456 15 6 4.8 3.2 0.00 12.85 0.00 66 1008.7
20260505065056 15 27 4.8 11.3 0.00 12.85 0.00 67 1008.9
20260505064626 15 343 0.0 1.6 0.00 12.85 0.00 67 1008.9
20260505064201 15 6 0.0 0.0 0.00 12.85 0.00 67 1008.9
20260505063724 15 6 0.0 1.6 0.00 12.85 0.00 67 1009.0
20260505063301 15 3 0.0 0.0 0.00 12.85 0.00 67 1009.0
20260505062811 15 120 0.0 0.0 0.00 12.85 0.00 68 1009.0
20260505062411 14 120 0.0 0.0 0.00 12.85 0.00 68 1009.1
20260505061946 14 120 0.0 0.0 0.00 12.85 0.00 68 1009.1
20260505061536 14 120 0.0 0.0 0.00 12.85 0.00 69 1009.1
20260505061126 14 120 0.0 0.0 0.00 12.85 0.00 69 1009.2
20260505060711 14 120 0.0 0.0 0.00 12.85 0.00 69 1009.1
20260505060234 14 120 0.0 0.0 0.00 12.85 0.00 69 1009.1
20260505055831 13 120 0.0 0.0 0.00 12.85 0.00 69 1009.1
20260505055346 13 120 0.0 0.0 0.00 12.85 0.00 70 1009.1
20260505054944 13 120 0.0 0.0 0.00 12.85 0.00 70 1009.1
20260505054541 13 120 0.0 0.0 0.00 12.85 0.00 70 1009.1
20260505054121 13 120 0.0 0.0 0.00 12.85 0.00 70 1009.1
20260505053711 13 120 0.0 0.0 0.00 12.85 0.00 70 1009.1
20260505053211 13 120 0.0 0.0 0.00 12.85 0.00 70 1009.1
20260505052741 13 151 0.0 3.2 0.00 12.85 0.00 71 1009.2
20260505052321 13 148 0.0 0.0 0.00 12.85 0.00 71 1009.2
20260505051843 13 169 6.4 6.4 0.00 12.85 0.00 71 1009.2
20260505051431 13 110 6.4 1.6 0.00 12.85 0.00 71 1009.2
20260505050931 13 140 8.0 4.8 0.00 12.85 0.00 71 1009.2
20260505050451 12 119 0.0 0.0 0.00 12.85 0.00 71 1009.3
20260505041554 12 120 0.0 1.6 0.00 12.85 0.00 72 1009.5
20260505041116 12 133 8.0 6.4 0.00 12.85 0.00 72 1009.4
20260505040634 12 176 8.0 11.3 0.00 12.85 0.00 72 1009.4
20260505040231 12 128 0.0 8.0 0.00 12.85 0.00 72 1009.4
20260505035816 12 131 0.0 0.0 0.00 12.85 0.00 72 1009.3
20260505035419 12 131 0.0 0.0 0.00 12.85 0.00 72 1009.3
20260505035002 12 131 0.0 0.0 0.00 12.85 0.00 72 1009.2
20260505034526 12 131 0.0 1.6 0.00 12.85 0.00 72 1009.3
20260505034101 12 147 0.0 0.0 0.00 12.85 0.00 72 1009.3
20260505033651 12 147 0.0 0.0 0.00 12.85 0.00 72 1009.3
20260505033224 12 185 0.0 0.0 0.00 12.85 0.00 72 1009.4
20260505032811 12 127 0.0 0.0 0.00 12.85 0.00 72 1009.4
20260505032336 12 157 3.2 3.2 0.00 12.85 0.00 72 1009.4
20260505031851 12 161 3.2 3.2 0.00 12.85 0.00 72 1009.5
20260505031416 12 157 0.0 0.0 0.00 12.85 0.00 72 1009.6
20260505030916 12 157 0.0 0.0 0.00 12.85 0.00 72 1009.7
20260505030456 12 121 4.8 4.8 0.00 12.85 0.00 71 1009.7
20260505030031 12 150 1.6 6.4 0.00 12.85 0.00 71 1009.7
20260505025531 12 145 1.6 4.8 0.00 12.85 0.00 71 1009.8
20260505025041 12 172 0.0 0.0 0.00 12.85 0.00 71 1009.8
20260505024604 12 172 0.0 0.0 0.00 12.85 0.00 71 1009.9
20260505024111 12 189 1.6 3.2 0.00 12.85 0.00 71 1009.9
20260505023626 12 102 1.6 3.2 0.00 12.85 0.00 70 1009.9
20260505023221 12 136 3.2 3.2 0.00 12.85 0.00 70 1009.9
20260505022756 12 167 0.0 0.0 0.00 12.85 0.00 70 1010.0
20260505022321 12 169 1.6 0.0 0.00 12.85 0.00 70 1010.1
20260505021924 12 157 0.0 0.0 0.00 12.85 0.00 70 1010.1
20260505021441 13 155 0.0 0.0 0.00 12.85 0.00 70 1010.1
20260505020951 13 186 0.0 4.8 0.00 12.85 0.00 70 1010.2
20260505020514 13 113 0.0 0.0 0.00 12.85 0.00 69 1010.3
20260505020036 13 162 0.0 0.0 0.00 12.85 0.00 69 1010.3
20260505015626 13 168 0.0 0.0 0.00 12.85 0.00 69 1010.4
20260505015136 13 168 0.0 0.0 0.00 12.85 0.00 69 1010.5
20260505014701 13 168 0.0 0.0 0.00 12.85 0.00 69 1010.5